Wind_Speed
27 26 25 23 19 16 14 12 11 11 14 16 17 19 20 21 21 21 21 21 22 22 22 22 22 21 21 20 20 21 22 23 25 26 27 27 27 27 26 25 23 23 23
13 12 10 8 8 7 6 7 9 12 14 16 17 18 19 20 20 20 20 20 21 21 22 22 22 21 21 20 20 20 20 21 23 25 26 26 27 28 27 26 24 23 23
5 4 4 3 3 4 5 8 10 13 14 16 17 18 19 19 19 19 19 19 20 20 21 22 22 22 21 20 20 20 20 20 22 24 25 26 26 27 28 28 26 25 25
3 1 1 3 4 6 8 10 12 13 15 16 17 18 18 19 19 20 20 20 20 21 21 21 22 22 22 21 20 21 21 20 21 22 24 25 26 28 29 29 29 28 28
2 3 4 4 5 7 8 10 12 13 15 17 18 18 19 20 20 21 21 21 21 22 22 22 22 22 22 22 21 22 22 21 21 21 22 23 24 26 27 29 30 31 31
4 4 5 6 8 9 10 12 14 15 17 18 19 19 20 21 21 22 22 22 22 22 22 22 22 22 22 23 23 23 23 23 23 22 22 23 23 25 27 26 28 30 31
6 7 8 9 10 11 13 14 16 18 19 20 21 21 22 22 22 22 22 22 23 23 23 23 23 22 22 22 23 24 24 23 24 24 23 23 23 23 24 25 26 27 29
7 8 10 11 12 14 15 16 18 19 20 21 21 22 22 22 22 22 22 23 24 23 22 22 22 22 22 22 23 23 24 24 24 24 24 24 24 24 24 25 26 27 28
10 11 12 12 13 15 16 17 19 19 20 21 22 22 23 22 22 22 22 23 23 22 22 22 22 22 22 22 22 23 23 23 24 24 24 25 25 25 25 25 26 26 26
11 11 12 13 14 15 16 17 18 19 20 20 21 21 22 22 22 22 22 22 22 22 21 21 21 21 21 22 22 22 23 23 23 23 24 24 25 25 25 25 25 26 26
11 12 13 13 14 15 16 16 16 16 16 17 18 18 19 20 21 21 22 22 23 23 22 22 21 21 21 20 21 21 21 22 23 23 23 24 24 25 25 25 26 26 26
13 13 14 14 14 14 14 14 13 12 12 13 13 14 15 17 18 19 19 20 21 22 22 21 21 21 21 20 20 20 21 22 22 22 22 23 24 24 25 25 26 27 27
15 15 15 15 15 15 15 15 13 12 11 10 10 11 12 13 14 15 16 17 18 18 19 20 20 20 20 20 20 20 20 21 21 20 20 21 22 23 24 25 26 27 28
17 18 18 18 18 18 17 17 15 14 12 11 11 11 11 11 11 11 12 13 13 14 15 16 17 17 18 18 18 19 19 19 20 20 19 20 20 21 22 23 25 26 28
18 19 20 20 20 20 19 19 18 16 15 14 13 13 13 12 12 11 10 9 9 8 9 9 11 13 14 14 15 16 16 17 17 18 18 19 19 20 21 22 23 25 26
19 20 21 21 21 21 21 20 20 19 18 17 16 16 15 15 14 14 12 11 9 7 5 4 3 5 6 8 9 10 11 11 13 14 16 17 17 18 19 21 22 24 25
18 19 20 21 21 21 22 22 21 21 20 20 19 19 19 18 18 18 17 15 13 12 10 8 7 5 3 2 0 2 4 5 7 9 10 12 14 16 17 19 20 21 23
17 17 19 20 21 21 22 22 22 22 22 22 22 22 22 22 22 21 20 19 18 18 16 15 13 12 10 8 7 5 3 2 3 4 6 8 10 12 14 16 18 19 21
15 16 16 17 19 20 20 21 22 22 22 23 23 23 23 24 24 24 23 22 22 21 20 19 18 17 15 13 12 10 9 7 6 6 6 7 8 10 11 13 15 17 19
15 15 15 16 17 18 19 19 20 21 22 22 23 23 23 24 24 24 24 24 24 23 22 22 21 20 19 18 16 15 13 12 11 10 9 10 10 10 10 11 12 14 16
14 14 14 14 15 16 16 17 18 19 20 21 21 22 22 23 23 24 24 23 23 23 22 22 21 21 20 19 18 17 16 16 15 14 13 13 13 13 13 13 13 14 15
13 14 14 14 14 14 15 15 16 16 17 18 19 20 20 21 21 22 22 22 22 22 21 21 20 20 19 19 18 18 18 18 17 17 16 16 15 15 15 15 15 16 16
11 12 13 14 14 14 14 14 14 15 15 16 16 17 17 18 19 19 20 20 20 20 20 19 19 19 19 18 18 18 18 18 18 18 18 18 18 17 17 17 18 18 18
8 10 11 12 13 13 13 13 13 14 14 14 14 14 15 16 16 17 17 18 18 18 18 18 17 17 17 17 17 17 17 17 17 17 17 18 18 18 19 19 19 19 20
6 7 8 10 11 12 13 12 12 12 13 13 12 12 13 14 14 15 15 15 16 16 16 16 16 16 16 16 16 16 16 16 16 17 17 17 18 18 19 20 20 21 22
5 5 6 8 10 11 12 12 12 12 12 12 12 12 12 12 13 13 14 14 14 15 15 15 15 16 16 16 16 16 16 16 16 17 17 17 18 18 19 20 20 21 22
Wind_Direction
256 258 259 257 248 235 230 230 229 233 243 250 256 260 263 267 271 272 273 274 274 272 271 271 271 270 270 269 270 272 265 254 246 243 245 243 242 242 242 243 245 245 244
238 238 235 227 218 219 230 243 250 252 254 258 262 266 268 271 274 275 275 276 275 274 272 271 270 270 269 268 267 270 265 256 249 244 244 243 242 240 239 241 242 243 243
186 190 197 209 229 256 267 271 269 264 265 269 270 272 275 276 277 279 279 279 278 276 273 271 269 268 268 267 265 265 266 260 251 245 244 243 242 239 237 238 240 241 243
129 141 276 296 288 287 281 279 277 274 274 274 275 276 277 278 280 280 279 279 278 276 274 271 268 266 265 265 263 262 262 260 254 249 246 246 243 240 239 240 241 241 243
34 359 340 324 302 289 287 284 281 281 281 281 281 277 278 279 280 280 279 279 278 276 273 270 267 265 264 263 261 259 259 257 255 252 249 247 244 241 240 242 241 242 243
10 347 329 318 305 295 292 289 286 285 284 283 281 279 280 281 279 279 279 279 277 275 272 270 268 265 263 261 258 257 256 255 253 252 251 250 248 245 244 244 243 244 245
350 332 322 315 308 301 297 293 290 287 284 283 283 282 281 279 278 276 277 277 276 274 272 270 267 265 263 261 258 256 254 253 252 252 253 253 252 250 247 247 248 250 250
345 334 325 317 310 305 300 295 291 289 287 286 284 283 282 281 279 277 276 275 275 274 272 269 266 264 262 261 259 256 254 253 252 252 252 252 254 253 252 252 251 252 250
343 334 326 320 314 309 303 299 296 293 290 288 286 285 283 281 280 279 277 276 275 274 271 268 265 263 262 260 258 257 255 253 251 251 252 253 253 254 255 255 253 255 255
345 339 332 326 320 315 310 305 300 296 293 290 288 286 283 282 281 279 278 276 274 272 270 269 266 264 261 259 258 257 255 254 253 253 253 253 254 255 255 256 257 257 257
357 352 347 341 334 328 322 316 309 303 300 297 293 290 287 284 283 280 278 276 274 272 270 268 265 263 262 260 258 257 256 256 255 254 255 255 255 255 256 256 256 258 259
15 9 4 358 354 349 344 338 331 324 319 314 308 303 297 292 288 285 281 278 276 273 271 267 263 261 260 258 258 257 257 256 256 256 255 256 257 257 257 258 259 260 260
28 23 19 16 14 12 9 5 360 354 347 342 335 326 317 309 301 295 291 286 281 276 272 267 262 260 258 257 257 257 257 256 255 256 257 259 261 262 261 261 261 262 262
39 36 32 30 29 27 25 23 20 17 14 9 2 355 346 337 327 317 308 299 290 283 276 269 262 259 257 255 255 256 257 257 256 257 260 263 265 266 266 266 266 266 267
44 42 39 37 36 36 35 33 32 31 29 26 21 16 11 5 359 353 343 330 318 307 294 278 264 257 254 254 255 256 256 256 258 259 262 264 267 268 269 270 271 271 271
45 43 41 39 39 38 37 37 37 37 36 34 31 28 26 24 20 17 18 16 13 7 358 337 298 266 256 255 253 254 256 256 260 264 264 266 270 272 274 275 276 276 276
45 44 43 42 42 41 41 40 40 40 40 39 38 38 38 37 36 37 40 41 45 48 50 53 56 61 74 94 185 246 256 264 273 275 273 273 274 278 281 283 283 283 282
42 42 42 41 41 42 42 43 43 43 44 44 45 45 45 45 46 48 51 54 56 57 60 64 67 70 74 76 72 67 48 4 333 317 305 295 291 291 291 291 291 291 290
38 37 38 39 40 41 42 43 44 45 47 47 48 48 49 50 51 54 56 58 59 60 63 65 67 69 70 69 67 63 57 49 35 18 1 343 328 317 311 307 305 303 301
35 35 37 38 40 42 43 43 45 46 48 49 49 50 51 53 54 55 57 58 60 61 63 64 65 66 68 67 65 62 59 54 46 38 28 17 10 1 350 339 331 326 320
33 33 34 35 38 39 41 42 43 45 47 48 50 51 52 53 55 55 56 58 59 61 62 63 64 65 64 64 64 62 60 57 54 49 44 37 32 26 18 10 1 353 346
32 32 32 32 34 36 38 40 41 43 46 47 49 51 52 53 54 55 55 57 58 59 60 61 62 62 62 62 62 61 60 57 55 52 47 43 38 35 30 25 19 13 6
30 31 31 31 31 32 34 36 38 40 42 45 46 48 49 51 52 54 55 55 56 57 57 58 59 60 60 60 60 59 58 56 54 52 49 46 42 38 34 31 27 23 18
25 27 28 28 26 25 26 28 31 34 36 38 41 43 45 47 50 51 53 53 53 53 53 54 55 55 54 54 53 51 50 49 47 45 43 41 38 36 33 31 28 25 22
10 15 19 20 20 19 18 19 22 26 29 32 34 37 40 43 45 47 48 48 48 47 47 48 48 48 46 45 43 41 39 38 36 35 34 32 31 30 29 28 26 24 22
343 353 0 7 12 13 14 15 15 18 21 25 29 32 35 38 40 42 44 45 45 44 44 44 44 42 41 39 37 35 33 31 29 27 26 25 24 24 23 22 21 20 19
Height
5793 5795 5795 5795 5795 5797 5799 5800 5802 5805 5807 5809 5809 5810 5810 5811 5810 5810 5809 5808 5807 5806 5806 5805 5805 5804 5804 5803 5802 5801 5800 5801 5802 5803 5805 5807 5810 5812 5814 5816 5819 5821 5822
5788 5790 5791 5792 5793 5794 5796 5798 5800 5801 5803 5803 5804 5804 5804 5804 5804 5803 5802 5801 5801 5800 5799 5799 5799 5798 5798 5797 5796 5796 5795 5795 5796 5798 5799 5801 5803 5806 5809 5811 5813 5815 5817
5786 5787 5788 5790 5791 5792 5793 5795 5796 5797 5798 5798 5798 5798 5798 5798 5797 5796 5796 5795 5795 5794 5793 5793 5792 5792 5792 5791 5791 5791 5791 5791 5791 5792 5793 5795 5797 5799 5802 5805 5807 5810 5812
5785 5786 5787 5788 5789 5790 5791 5792 5792 5792 5792 5792 5792 5792 5792 5791 5791 5790 5790 5789 5788 5788 5787 5786 5786 5786 5785 5785 5785 5786 5786 5786 5786 5786 5788 5789 5791 5793 5796 5799 5801 5803 5805
5785 5785 5786 5786 5787 5788 5788 5788 5788 5788 5787 5787 5786 5786 5785 5785 5784 5784 5784 5783 5782 5781 5780 5780 5780 5779 5779 5780 5780 5780 5780 5781 5781 5781 5782 5783 5785 5787 5789 5792 5794 5796 5798
5785 5785 5785 5786 5786 5785 5785 5784 5784 5783 5782 5781 5781 5780 5779 5778 5778 5777 5777 5776 5775 5774 5774 5773 5773 5773 5773 5774 5774 5774 5775 5775 5776 5776 5777 5778 5779 5781 5783 5784 5786 5789 5791
5785 5785 5785 5784 5783 5782 5781 5780 5779 5778 5777 5776 5775 5774 5773 5772 5772 5771 5770 5769 5768 5768 5767 5767 5767 5767 5767 5767 5768 5768 5769 5769 5770 5771 5772 5772 5774 5775 5776 5778 5779 5781 5783
5785 5784 5783 5782 5780 5779 5777 5776 5774 5773 5771 5770 5768 5767 5766 5766 5765 5764 5764 5763 5761 5761 5760 5761 5760 5760 5761 5761 5761 5762 5763 5763 5764 5765 5766 5767 5768 5769 5770 5771 5773 5774 5776
5784 5783 5781 5779 5777 5775 5773 5771 5769 5767 5765 5764 5762 5761 5760 5759 5759 5758 5757 5756 5755 5754 5754 5754 5754 5754 5755 5755 5755 5756 5757 5757 5758 5759 5760 5761 5762 5763 5765 5766 5767 5768 5769
5783 5781 5779 5777 5775 5772 5770 5767 5764 5762 5760 5758 5756 5755 5754 5753 5752 5751 5750 5749 5748 5748 5748 5748 5748 5748 5748 5748 5749 5750 5751 5751 5753 5754 5754 5755 5756 5758 5759 5760 5761 5762 5762
5783 5780 5778 5775 5772 5769 5766 5763 5760 5758 5755 5753 5751 5749 5748 5746 5745 5744 5743 5742 5741 5741 5741 5741 5741 5742 5742 5742 5743 5744 5745 5746 5747 5748 5749 5750 5751 5752 5753 5754 5755 5756 5756
5782 5780 5777 5774 5771 5767 5764 5760 5757 5754 5751 5749 5747 5744 5742 5741 5739 5738 5736 5735 5734 5734 5734 5734 5734 5735 5736 5737 5738 5739 5739 5740 5741 5742 5743 5744 5745 5746 5747 5748 5749 5750 5750
5783 5780 5777 5774 5770 5766 5763 5758 5755 5751 5749 5746 5744 5741 5739 5737 5734 5732 5731 5729 5728 5727 5726 5726 5727 5728 5729 5731 5732 5733 5734 5735 5736 5737 5738 5739 5740 5741 5741 5742 5743 5743 5744
5785 5782 5779 5775 5771 5767 5763 5759 5755 5752 5749 5746 5743 5740 5737 5734 5731 5729 5726 5724 5722 5721 5720 5720 5720 5722 5723 5725 5726 5728 5729 5730 5731 5733 5734 5734 5735 5735 5736 5736 5737 5737 5737
5788 5785 5781 5777 5773 5770 5765 5761 5757 5753 5750 5747 5744 5740 5737 5733 5730 5727 5723 5721 5719 5717 5716 5715 5716 5717 5718 5720 5721 5723 5724 5726 5727 5728 5729 5730 5730 5730 5730 5731 5730 5730 5730
5791 5788 5784 5781 5777 5773 5769 5764 5760 5756 5753 5749 5746 5742 5738 5735 5731 5727 5723 5720 5718 5716 5715 5714 5714 5714 5715 5717 5718 5719 5721 5722 5723 5724 5725 5725 5726 5726 5725 5725 5724 5724 5723
5794 5791 5788 5784 5780 5776 5772 5768 5764 5760 5756 5753 5749 5745 5741 5737 5733 5729 5725 5722 5720 5718 5717 5715 5715 5714 5715 5716 5717 5718 5719 5720 5720 5721 5721 5721 5721 5721 5721 5720 5719 5718 5716
5798 5795 5791 5788 5784 5780 5777 5773 5769 5765 5761 5757 5753 5749 5745 5741 5737 5733 5730 5727 5725 5722 5721 5719 5718 5717 5717 5718 5718 5719 5719 5719 5719 5719 5719 5719 5718 5717 5716 5715 5714 5712 5710
5801 5798 5795 5791 5788 5784 5781 5777 5774 5770 5766 5762 5759 5755 5751 5747 5743 5740 5736 5733 5730 5728 5726 5724 5723 5722 5721 5721 5721 5721 5720 5720 5720 5719 5718 5717 5716 5714 5713 5711 5709 5707 5705
5803 5800 5798 5795 5791 5788 5785 5782 5778 5775 5771 5768 5764 5761 5757 5753 5750 5746 5743 5740 5737 5735 5733 5731 5729 5728 5726 5726 5725 5724 5723 5722 5721 5719 5718 5716 5715 5712 5710 5708 5706 5703 5700
5806 5803 5800 5798 5795 5791 5788 5785 5782 5779 5776 5773 5769 5766 5763 5760 5756 5753 5750 5747 5744 5742 5739 5737 5735 5734 5732 5731 5729 5728 5726 5725 5723 5721 5719 5717 5715 5712 5710 5707 5704 5701 5697
5808 5805 5803 5800 5798 5795 5792 5789 5786 5783 5780 5777 5774 5771 5768 5765 5762 5759 5756 5753 5751 5748 5746 5743 5741 5739 5737 5735 5734 5732 5730 5728 5726 5724 5721 5719 5716 5713 5710 5707 5703 5700 5696
5810 5807 5805 5803 5800 5797 5795 5792 5789 5786 5783 5781 5778 5775 5773 5770 5767 5764 5762 5759 5756 5754 5751 5749 5747 5745 5742 5740 5738 5736 5734 5731 5729 5726 5724 5721 5718 5715 5711 5708 5704 5700 5696
5811 5809 5807 5805 5802 5800 5797 5795 5792 5789 5786 5784 5781 5779 5776 5774 5771 5768 5766 5764 5761 5759 5756 5754 5751 5749 5747 5744 5742 5740 5737 5735 5732 5729 5726 5723 5720 5716 5713 5709 5705 5701 5696
5812 5810 5808 5806 5804 5802 5799 5797 5794 5791 5789 5786 5784 5781 5779 5776 5774 5772 5769 5767 5765 5762 5760 5757 5755 5753 5750 5748 5745 5743 5740 5737 5734 5732 5729 5725 5722 5718 5714 5710 5706 5702 5697
5812 5810 5809 5807 5805 5803 5801 5798 5796 5793 5791 5788 5786 5783 5781 5779 5777 5774 5772 5770 5768 5765 5763 5761 5758 5756 5753 5751 5748 5745 5742 5739 5737 5733 5730 5727 5723 5720 5716 5712 5708 5703 5698